[[{"header":{"parameterUnit":"m.s-1","parameterCategory":1,"la1":30.2991,"la2":30.254,"lo1":-89.0895,"lo2":-89.0444,"dy":0.0017,"dx":0.0017,"nx":28,"ny":28,"refTime":"2023-09-04T21:00:00:Z","depth":0,"parameterNumber":2,"parameterNumberName":"U-component_of_WINDS"},"data":[0,0,0,0,0,0,0,0,0,0,0,0,0,0,0,0,0,0,0,0,0,0,0,0,0,0,0,0,0,0,0,0,0,0,0,0,0,0,0,0,0,0,0,0,0,0,0,0,0,0,0,0,0,0,0,0,0,0,-3.1594,-3.1594,0,-3.1592,-3.1592,-3.1592,-3.1538,-3.1536,-3.1535,-3.1533,-3.1532,-3.1533,-3.1534,0,0,0,0,0,0,0,0,0,0,0,0,0,-3.1551,-3.1552,-3.1594,-3.1594,-3.1594,-3.1592,-3.1592,-3.1592,-3.1538,-3.1536,-3.1534,-3.1533,-3.1531,-3.1533,-3.1534,0,0,0,0,0,0,0,0,0,0,0,0,0,-3.1561,-3.1552,-3.1594,-3.1567,-3.1564,-3.1592,-3.1592,-3.1592,-3.1538,-3.1536,-3.1534,-3.1532,-3.1531,-3.1533,-3.1535,-3.1589,0,0,-3.1541,-3.1541,0,0,0,0,0,0,0,0,-3.1561,-3.1563,-3.1571,-3.1569,-3.1566,-3.1563,-3.1576,-3.1591,-3.1539,-3.1548,-3.1533,-3.1531,-3.1544,-3.1545,-3.1549,-3.1589,-3.1589,-3.1541,-3.1542,-3.1543,-3.1543,0,0,0,0,0,0,0,-3.156,-3.1563,-3.1593,-3.1571,-3.1568,-3.1555,-3.1554,-3.1579,-3.1558,-3.1547,-3.1543,-3.1544,-3.1542,-3.1547,-3.1549,-3.1589,-3.1541,-3.1542,-3.1544,-3.1544,-3.1673,-3.1675,0,0,0,0,0,0,-3.1563,-3.1562,-3.1593,-3.1593,-3.1558,-3.1557,-3.1556,-3.1566,-3.1557,-3.1554,-3.1545,-3.1541,-3.1545,-3.1546,-3.1548,-3.161,-3.1543,-3.1544,-3.1546,-3.1671,-3.1673,-3.1676,0,0,0,0,0,0,-3.1562,-3.1566,-3.1593,-3.1577,-3.1579,-3.156,-3.1572,-3.1567,-3.1572,-3.1556,-3.1552,-3.1554,-3.1543,-3.1546,-3.1579,-3.1609,-3.1545,-3.1547,-3.1668,-3.1672,-3.1675,-3.1735,0,0,0,0,0,0,-3.1561,-3.1566,-3.1587,-3.1578,-3.158,-3.1624,-3.1574,-3.1569,-3.1575,-3.157,-3.1564,-3.1561,-3.1542,-3.1577,-3.1581,-3.1611,-3.1549,-3.1665,-3.167,-3.1674,-3.173,-3.174,-3.1749,0,0,0,0,0,-3.156,-3.1604,-3.1588,-3.1592,-3.1605,-3.1626,-3.1628,-3.1605,-3.1578,-3.1598,-3.1588,-3.1561,-3.1606,-3.1581,-3.1585,-3.1616,-3.1663,-3.1668,-3.1673,-3.1726,-3.1738,-3.1748,0,0,0,0,0,0,-3.1617,-3.1602,-3.1584,-3.1626,-3.1628,-3.1617,-3.1641,-3.1619,-3.1628,-3.1622,-3.1594,-3.1593,-3.1631,-3.1627,-3.1599,-3.1668,-3.163,-3.1636,-3.1668,-3.168,-3.1689,-3.1688,-3.155,0,0,0,0,0,-3.1634,-3.1652,-3.1639,-3.1677,-3.1679,-3.166,-3.1669,-3.1651,-3.1652,-3.1652,-3.1644,-3.1646,-3.166,-3.167,-3.1683,-3.1731,-3.1728,-3.1754,-3.1763,-3.1771,-3.1776,-3.18,-3.1811,-3.1693,-3.1693,-3.1693,0,0,-3.167,-3.1665,-3.1677,-3.1689,-3.1688,-3.1707,-3.1661,-3.1683,-3.1697,-3.1655,-3.1686,-3.1681,-3.1681,-3.1722,-3.1739,-3.1719,-3.1809,-3.1778,-3.1784,-3.1784,-3.1806,-3.1818,-3.1828,-3.1696,-3.1696,-3.1695,0,0,-3.1745,-3.1743,-3.1774,-3.1775,-3.1774,-3.1761,-3.1769,-3.1762,-3.1757,-3.1787,-3.1756,-3.1773,-3.1799,-3.1799,-3.1803,-3.1881,-3.1855,-3.1886,-3.1932,-3.1956,-3.1965,-3.1974,-3.1999,-3.2009,-3.1891,-3.1891,-3.1892,0,-3.1789,-3.1817,-3.1793,-3.1818,-3.1823,-3.1787,-3.1818,-3.182,-3.1824,-3.1828,-3.1807,-3.1838,-3.1836,-3.1876,-3.1895,-3.19,-3.1907,-3.1885,-3.1966,-3.1974,-3.1981,-3.2005,-3.2015,-3.1895,-3.1895,-3.1894,-3.1894,0,-3.1871,-3.1891,-3.1916,-3.192,-3.1929,-3.1957,-3.1938,-3.195,-3.1933,-3.1923,-3.1954,-3.1951,-3.1961,-3.197,-3.1954,-3.2008,-3.1996,-3.1971,-3.1931,-3.1996,-3.2018,-3.2028,-3.19,-3.1899,-3.1898,-3.1897,0,0,-3.1978,-3.197,-3.198,-3.1981,-3.1979,-3.1993,-3.202,-3.2031,-3.2041,-3.2046,-3.2066,-3.209,-3.2067,-3.2071,-3.2055,-3.2076,-3.2136,-3.2049,-3.2048,-3.2063,-3.2194,-3.221,-3.2222,-3.212,-3.2122,-3.2123,-3.2193,0,-3.2049,-3.2093,-3.2073,-3.2119,-3.2137,-3.2104,-3.2127,-3.2128,-3.212,-3.2134,-3.2126,-3.2142,-3.2111,-3.2113,-3.2133,-3.2124,-3.2161,-3.2119,-3.2138,-3.2139,-3.2136,-3.2233,-3.2251,-3.2317,-3.2202,-3.2203,-3.2204,0,-3.2136,-3.2144,-3.2192,-3.2186,-3.2193,-3.2214,-3.2222,-3.2236,-3.2237,-3.2229,-3.2235,-3.2215,-3.224,-3.2204,-3.2238,-3.221,-3.2218,-3.2215,-3.2217,-3.2215,-3.2174,-3.2233,-3.2338,-3.2347,-3.2218,-3.2217,-3.2216,0,-3.2207,-3.223,-3.2261,-3.2264,-3.2259,-3.2274,-3.2272,-3.2271,-3.2279,-3.2287,-3.2291,-3.2302,-3.2308,-3.2317,-3.23,-3.2275,-3.2337,-3.2298,-3.233,-3.2331,-3.2342,-3.2341,-3.2447,-3.2351,-3.2351,-3.2351,-3.2351,0,-3.2287,-3.2317,-3.2293,-3.2312,-3.2345,-3.2323,-3.2356,-3.2351,-3.2351,-3.2368,-3.2342,-3.2359,-3.2336,-3.2351,-3.2338,-3.2368,-3.2372,-3.2366,-3.2361,-3.2367,-3.2367,-3.2369,-3.2363,-3.2354,-3.2353,-3.2353,-3.2352,0,-3.237,-3.2356,-3.2387,-3.238,-3.2379,-3.2403,-3.2397,-3.2414,-3.2406,-3.2428,-3.2432,-3.2418,-3.2434,-3.2419,-3.2434,-3.2426,-3.2465,-3.2456,-3.2464,-3.2461,-3.2492,-3.2489,-3.2601,-3.2614,-3.2512,-3.2513,-3.2514,0,-3.242,-3.2442,-3.2438,-3.2447,-3.2448,-3.2464,-3.2471,-3.2452,-3.2461,-3.2464,-3.2481,-3.2495,-3.2505,-3.2533,-3.2524,-3.2536,-3.2525,-3.2563,-3.2526,-3.253,-3.2523,-3.252,-3.2522,-3.257,-3.2571,-3.2572,-3.2573,0,-3.251,-3.2502,-3.2514,-3.2524,-3.2534,-3.2541,-3.2546,-3.2556,-3.2535,-3.2547,-3.2563,-3.2571,-3.2587,-3.2601,-3.2611,-3.2609,-3.2588,-3.2585,-3.2593,-3.2597,-3.26,-3.2597,-3.2482,-3.2582,-3.2581,-3.2581,-3.258,-3.258,-3.2577,-3.2595,-3.2594,-3.2608,-3.261,-3.2616,-3.2631,-3.2624,-3.2638,-3.2649,-3.2637,-3.2656,-3.2657,-3.2668,-3.2669,-3.2684,-3.2668,-3.2679,-3.2682,-3.2684,-3.2688,-3.26,-3.2686,-3.2686,-3.2686,-3.2685,-3.2685,0,-3.2663,-3.2662,-3.2675,-3.2683,-3.2694,-3.2674,-3.2679,-3.2689,-3.2707,-3.271,-3.272,-3.2739,-3.2753,-3.2746,-3.2758,-3.2771,-3.2761,-3.2775,-3.2772,-3.2772,-3.2703,-3.2694,-3.2782,-3.2782,-3.2782,-3.2782,-3.2782,-3.2782,-3.2709,-3.2738,-3.2731,-3.276,-3.2758,-3.2777,-3.2781,-3.2786,-3.2788,-3.281,-3.2821,-3.2817,-3.2816,-3.2827,-3.2839,-3.2837,-3.2841,-3.2858,-3.2852,-3.2787,-3.2777,-3.2768,-3.2759,-3.286,-3.286,-3.2919,-3.292,-3.292]},{"header":{"parameterUnit":"m.s-1","parameterCategory":1,"la1":30.2991,"la2":30.254,"lo1":-89.0895,"lo2":-89.0444,"dy":0.0017,"dx":0.0017,"nx":28,"ny":28,"refTime":"2023-09-04T21:00:00:Z","depth":0,"parameterNumber":3,"parameterNumberName":"V-component_of_WINDS"},"data":[0,0,0,0,0,0,0,0,0,0,0,0,0,0,0,0,0,0,0,0,0,0,0,0,0,0,0,0,0,0,0,0,0,0,0,0,0,0,0,0,0,0,0,0,0,0,0,0,0,0,0,0,0,0,0,0,0,0,2.0417,2.0417,0,2.0421,2.0421,2.0421,2.0422,2.0422,2.0422,2.0422,2.0423,2.0423,2.0423,0,0,0,0,0,0,0,0,0,0,0,0,0,2.041,2.0411,2.0417,2.0417,2.0418,2.0421,2.0421,2.0421,2.0422,2.0422,2.0422,2.0422,2.0423,2.0423,2.0423,0,0,0,0,0,0,0,0,0,0,0,0,0,2.0414,2.0411,2.0417,2.0418,2.0419,2.0421,2.0421,2.0421,2.0422,2.0422,2.0422,2.0422,2.0423,2.0423,2.0424,2.0425,0,0,2.0424,2.0424,0,0,0,0,0,0,0,0,2.0413,2.0414,2.0418,2.0418,2.0418,2.0421,2.0419,2.0422,2.0422,2.042,2.0422,2.0422,2.0422,2.0423,2.0423,2.0425,2.0425,2.0424,2.0424,2.0424,2.0424,0,0,0,0,0,0,0,2.0413,2.0414,2.0419,2.0418,2.0418,2.0418,2.0419,2.042,2.0421,2.0421,2.0421,2.0421,2.0422,2.0423,2.0423,2.0425,2.0424,2.0424,2.0424,2.0424,2.0428,2.0428,0,0,0,0,0,0,2.0413,2.0414,2.0419,2.0419,2.0416,2.0418,2.0419,2.042,2.0422,2.0422,2.0421,2.0421,2.0423,2.0423,2.0423,2.0425,2.0424,2.0424,2.0424,2.0428,2.0428,2.0428,0,0,0,0,0,0,2.0413,2.0413,2.0418,2.0416,2.0417,2.0419,2.042,2.042,2.0421,2.0422,2.0422,2.0422,2.0423,2.0423,2.0425,2.0425,2.0424,2.0424,2.0428,2.0428,2.0428,2.0428,0,0,0,0,0,0,2.0413,2.0413,2.0414,2.0416,2.0417,2.042,2.042,2.042,2.0421,2.0421,2.0422,2.0423,2.0423,2.0424,2.0425,2.0425,2.0424,2.0428,2.0428,2.0428,2.0428,2.0428,2.0429,0,0,0,0,0,2.0412,2.0413,2.0414,2.0415,2.0418,2.042,2.042,2.0421,2.0421,2.0422,2.0423,2.0423,2.0425,2.0425,2.0425,2.0425,2.0428,2.0428,2.0428,2.0428,2.0428,2.0429,0,0,0,0,0,0,2.041,2.0414,2.0414,2.0416,2.0418,2.042,2.0421,2.0421,2.0423,2.0423,2.0423,2.0423,2.0425,2.0425,2.0425,2.0427,2.0426,2.0427,2.0427,2.0427,2.0427,2.0427,2.0424,0,0,0,0,0,2.041,2.0412,2.0415,2.0416,2.0417,2.0419,2.042,2.0421,2.0422,2.0423,2.0423,2.0424,2.0426,2.0426,2.0427,2.0429,2.0429,2.0429,2.0429,2.0429,2.0429,2.0431,2.0431,2.0428,2.0428,2.0428,0,0,2.041,2.0412,2.0413,2.0416,2.0417,2.0419,2.0419,2.0421,2.0422,2.0423,2.0424,2.0425,2.0426,2.0428,2.0428,2.0428,2.043,2.043,2.043,2.043,2.0431,2.0431,2.0431,2.0428,2.0428,2.0428,0,0,2.041,2.0411,2.0413,2.0415,2.0417,2.0419,2.0419,2.0421,2.0422,2.0424,2.0425,2.0426,2.0428,2.0429,2.0429,2.0431,2.0431,2.0431,2.0432,2.0433,2.0433,2.0433,2.0434,2.0434,2.0431,2.0432,2.0432,0,2.0408,2.0411,2.0414,2.0416,2.0417,2.0419,2.042,2.0421,2.0424,2.0425,2.0425,2.0428,2.0428,2.043,2.0431,2.0431,2.0432,2.0431,2.0433,2.0433,2.0433,2.0434,2.0434,2.0432,2.0432,2.0432,2.0432,0,2.041,2.0412,2.0413,2.0416,2.0418,2.042,2.0422,2.0423,2.0424,2.0425,2.0427,2.0429,2.043,2.0431,2.0431,2.0433,2.0433,2.0433,2.0432,2.0434,2.0434,2.0435,2.0432,2.0432,2.0432,2.0432,0,0,2.0408,2.0413,2.0414,2.0415,2.0419,2.042,2.0422,2.0425,2.0426,2.0427,2.0429,2.0431,2.0432,2.0432,2.0433,2.0434,2.0436,2.0434,2.0434,2.0434,2.0438,2.0438,2.0438,2.0436,2.0436,2.0436,2.0438,0,2.0408,2.0412,2.0415,2.0418,2.042,2.0422,2.0423,2.0426,2.0427,2.0429,2.043,2.0432,2.0432,2.0433,2.0434,2.0435,2.0436,2.0435,2.0437,2.0437,2.0436,2.0438,2.0438,2.0439,2.0438,2.0438,2.0438,0,2.0409,2.0412,2.0415,2.0419,2.042,2.0422,2.0424,2.0426,2.0429,2.043,2.0431,2.0432,2.0434,2.0434,2.0437,2.0436,2.0437,2.0438,2.0438,2.0438,2.0437,2.0438,2.044,2.044,2.0438,2.0438,2.0438,0,2.0407,2.0412,2.0414,2.0416,2.042,2.0422,2.0423,2.0426,2.0428,2.043,2.0431,2.0433,2.0434,2.0436,2.0438,2.0437,2.044,2.044,2.0441,2.0441,2.0441,2.0441,2.0443,2.0442,2.0442,2.0442,2.0442,0,2.0407,2.0409,2.0414,2.0416,2.0418,2.0421,2.0423,2.0425,2.0427,2.0429,2.0431,2.0433,2.0435,2.0437,2.0438,2.044,2.0441,2.0441,2.0442,2.0441,2.0441,2.0441,2.0441,2.0442,2.0442,2.0442,2.0442,0,2.0405,2.0409,2.0412,2.0416,2.0418,2.0419,2.0423,2.0424,2.0426,2.0429,2.043,2.0433,2.0435,2.0437,2.044,2.0441,2.0443,2.0443,2.0442,2.0442,2.0443,2.0443,2.0445,2.0446,2.0445,2.0445,2.0445,0,2.0405,2.0407,2.0412,2.0414,2.0416,2.0418,2.042,2.0423,2.0425,2.0429,2.043,2.0433,2.0435,2.0439,2.0441,2.0443,2.0444,2.0444,2.0444,2.0444,2.0444,2.0443,2.0444,2.0444,2.0444,2.0444,2.0444,0,2.0404,2.0406,2.0409,2.0413,2.0415,2.0418,2.0421,2.0422,2.0426,2.0428,2.0431,2.0433,2.0436,2.0439,2.0442,2.0443,2.0444,2.0445,2.0445,2.0444,2.0443,2.0444,2.0442,2.0444,2.0444,2.0444,2.0444,2.0444,2.0403,2.0405,2.0409,2.0412,2.0415,2.0418,2.042,2.0423,2.0426,2.0429,2.0431,2.0434,2.0437,2.0441,2.0443,2.0445,2.0445,2.0445,2.0445,2.0445,2.0445,2.0444,2.0445,2.0445,2.0445,2.0445,2.0445,0,2.0402,2.0405,2.0408,2.0413,2.0416,2.0418,2.0421,2.0423,2.0426,2.0429,2.0432,2.0435,2.0438,2.0441,2.0444,2.0445,2.0446,2.0446,2.0446,2.0446,2.0445,2.0445,2.0445,2.0445,2.0445,2.0445,2.0445,2.0445,2.0402,2.0405,2.0408,2.0413,2.0416,2.0419,2.0421,2.0424,2.0427,2.0431,2.0434,2.0436,2.0439,2.0442,2.0445,2.0445,2.0446,2.0446,2.0447,2.0446,2.0446,2.0446,2.0445,2.0447,2.0447,2.0448,2.0448,2.0448]}]]